カタログに戻る

IRIDIUM 108

運用中通信PO
NORAD 41924·PAYLOAD·🇺🇸 United States

打ち上げ Jan 14, 2017 から Vandenberg Space Force Base

Loading…

次のパス (今後24時間)

TLE

最新Source: CelesTrak SupGP

元期: Sep 14, 2026, 20:37 UTC

1 41924C 17003H   26257.85937500  .00000492  00000+0  17601-3 0  2579
2 41924  86.4009  19.2536 0002169  97.6655  69.1912 14.34218295    19

AllMySatでIRIDIUM 108をリアルタイム追跡

Download on the App Store